Tracking 30995 objects as of 5-Jul-2025
HD Live streaming from Space Station
objects crossing your sky now

STARLINK-1153

Track STARLINK-1153 now!
10-day predictions
STARLINK-1153 is classified as:


NORAD ID: 45080
Int'l Code: 2020-006AN
Perigee: 553.4 km
Apogee: 555.3 km
Inclination: 53.1 °
Period: 95.6 minutes
Semi major axis: 6925 km
RCS: Unknown
Launch date: January 29, 2020
Source: United States (US)
Launch site: AIR FORCE EASTERN TEST RANGE (AFETR)
Your satellite tracking list
STARLINK-5360
Track 1 satellite(s)




NASA's NSSDC Master Catalog

Two Line Element Set (TLE):
1 45080U 20006AN  25186.57378027  .00003628  00000-0  26228-3 0  9998
2 45080  53.0554 295.9692 0001381  82.6289 277.4857 15.06407647299494
Source of the keplerian elements: AFSPC